Unalakleet, AK

4:11 PM AKDT on July 24, 2017 (GMT -0800)
Unalakleet

Weather History for PAUN - August, 2013

Change the Weather History Date:

Sunday, August 18, 2013

  Actual Average Record
Temperature  
Mean Temperature 47 °F -  
Max Temperature 57 °F 59 °F 80 °F (2004)
Min Temperature 37 °F 46 °F 33 °F (1981)
Degree Days  
Heating Degree Days 18    
Moisture  
Dew Point 45 °F    
Average Humidity 81    
Maximum Humidity 93    
Minimum Humidity 67    
Precipitation  
Precipitation 0.00 in - - ()
Sea Level Pressure  
Sea Level Pressure 29.66 in    
Wind  
Wind Speed 4 mph (South)    
Max Wind Speed 16 mph    
Max Gust Speed -    
Visibility 10 miles    
Events      
Averages and records for this station are not official NWS values.
T = Trace of Precipitation, MM = Missing Value Source: NWS Daily Summary

Daily Weather History Graph

Daily Weather History Graph

Search for Another Location

Airport or City:

Trip Planner

Search our weather history database for the weather conditions in past years. The results will help you decide how hot, cold, wet, or windy it might be!

Date:

Astronomy

Aug. 18, 2013 Rise Set
Actual Time 6:46 AM AKDT 10:45 PM AKDT
Civil Twilight 5:45 AM AKDT 11:45 PM AKDT
Nautical Twilight 3:56 AM AKDT 1:28 AM AKDT
Astronomical Twilight Sun does not set Sun does not set
Moon 9:15 PM AKDT (8/18) 3:37 AM AKDT (8/18)
Length of Visible Light 17h 59m
Length of Day
15h 58m
Waxing Gibbous, 93% of the Moon is Illuminated
Aug 18
Waxing Gibbous
Aug 20
Full
Aug 28
Last Quarter
Sep 5
New
Sep 12
First Quarter

Hourly Weather History & Observations

Time (AKDT) Temp. Windchill Dew Point Humidity Pressure Visibility Wind Dir Wind Speed Gust Speed Precip Events Conditions
12:16 AM 51.8 °F - 46.4 °F 82% 29.69 in 10.0 mi Calm Calm - N/A   Clear
12:36 AM 51.8 °F - 46.4 °F 82% 29.69 in 10.0 mi Calm Calm - N/A   Clear
12:56 AM 48.2 °F - 44.6 °F 87% 29.69 in 10.0 mi Calm Calm - N/A   Clear
1:16 AM 48.2 °F - 46.4 °F 93% 29.69 in 10.0 mi Calm Calm - N/A   Clear
1:36 AM 50.0 °F - 46.4 °F 87% 29.69 in 10.0 mi Calm Calm - N/A   Clear
1:56 AM 46.4 °F 45.2 °F 42.8 °F 87% 29.69 in 10.0 mi SE 3.5 mph - N/A   Clear
2:16 AM 44.6 °F 42.2 °F 42.8 °F 93% 29.69 in 10.0 mi SE 4.6 mph - N/A   Clear
2:36 AM 44.6 °F 42.2 °F 42.8 °F 93% 29.69 in 10.0 mi ESE 4.6 mph - N/A   Clear
2:56 AM 46.4 °F 44.3 °F 44.6 °F 93% 29.69 in 10.0 mi ESE 4.6 mph - N/A   Clear
3:16 AM 46.4 °F 45.2 °F 42.8 °F 87% 29.69 in 10.0 mi East 3.5 mph - N/A   Clear
3:36 AM 42.8 °F 41.1 °F 39.2 °F 87% 29.70 in 10.0 mi East 3.5 mph - N/A   Clear
3:56 AM 44.6 °F 41.4 °F 39.2 °F 81% 29.69 in 10.0 mi East 5.8 mph - N/A   Clear
4:16 AM 46.4 °F 44.3 °F 42.8 °F 87% 29.69 in 10.0 mi East 4.6 mph - N/A   Clear
4:36 AM 42.8 °F 40.1 °F 39.2 °F 87% 29.69 in 10.0 mi ESE 4.6 mph - N/A   Clear
4:56 AM 39.2 °F 37.0 °F 37.4 °F 93% 29.69 in 10.0 mi ESE 3.5 mph - N/A   Clear
5:16 AM 41.0 °F 38.0 °F 37.4 °F 87% 29.69 in 10.0 mi ESE 4.6 mph - N/A   Clear
5:36 AM 39.2 °F 35.0 °F 35.6 °F 87% 29.69 in 10.0 mi SE 5.8 mph - N/A   Clear
5:56 AM 39.2 °F 35.0 °F 37.4 °F 93% 29.69 in 10.0 mi SE 5.8 mph - N/A   Clear
6:16 AM 37.4 °F 33.8 °F 35.6 °F 93% 29.69 in 10.0 mi ESE 4.6 mph - N/A   Clear
6:36 AM 37.4 °F 33.8 °F 35.6 °F 93% 29.69 in 10.0 mi SE 4.6 mph - N/A   Clear
6:56 AM 39.2 °F 37.0 °F 37.4 °F 93% 29.69 in 10.0 mi ESE 3.5 mph - N/A   Clear
7:16 AM 39.2 °F 35.9 °F 35.6 °F 87% 29.69 in 10.0 mi SE 4.6 mph - N/A   Clear
7:36 AM 39.2 °F 35.9 °F 35.6 °F 87% 29.69 in 10.0 mi SE 4.6 mph - N/A   Clear
7:56 AM 39.2 °F 35.9 °F 37.4 °F 93% 29.69 in 10.0 mi SE 4.6 mph - N/A   Clear
8:16 AM 39.2 °F 35.0 °F 37.4 °F 93% 29.69 in 10.0 mi ESE 5.8 mph - N/A   Clear
8:36 AM 42.8 °F 40.1 °F 39.2 °F 87% 29.69 in 10.0 mi ESE 4.6 mph - N/A   Clear
8:56 AM 44.6 °F 42.2 °F 41.0 °F 87% 29.69 in 10.0 mi ESE 4.6 mph - N/A   Clear
9:16 AM 44.6 °F 41.4 °F 42.8 °F 93% 29.69 in 10.0 mi SE 5.8 mph - N/A   Clear
9:36 AM 48.2 °F - 42.8 °F 82% 29.69 in 10.0 mi ESE 4.6 mph - N/A   Clear
9:56 AM 48.2 °F - 44.6 °F 87% 29.70 in 10.0 mi ESE 3.5 mph - N/A   Scattered Clouds
10:16 AM 48.2 °F - 44.6 °F 87% 29.69 in 10.0 mi SE 3.5 mph - N/A   Scattered Clouds
10:36 AM 51.8 °F - 44.6 °F 76% 29.69 in 10.0 mi SE 3.5 mph - N/A   Partly Cloudy
10:56 AM 51.8 °F - 46.4 °F 82% 29.69 in 10.0 mi SE 4.6 mph - N/A   Mostly Cloudy
11:16 AM 53.6 °F - 46.4 °F 77% 29.69 in 10.0 mi Calm Calm - N/A   Overcast
11:36 AM 55.4 °F - 44.6 °F 67% 29.69 in 10.0 mi Calm Calm - N/A   Mostly Cloudy
11:56 AM 53.6 °F - 44.6 °F 72% 29.69 in 10.0 mi Calm Calm - N/A   Overcast
12:16 PM 55.4 °F - 44.6 °F 67% 29.69 in 10.0 mi Calm Calm - N/A   Overcast
12:36 PM 55.4 °F - 44.6 °F 67% 29.68 in 10.0 mi West 3.5 mph - N/A   Scattered Clouds
12:56 PM 55.4 °F - 46.4 °F 72% 29.68 in 10.0 mi Calm Calm - N/A   Partly Cloudy
1:16 PM 55.4 °F - 48.2 °F 77% 29.68 in 10.0 mi SW 3.5 mph - N/A   Clear
1:36 PM 55.4 °F - 46.4 °F 72% 29.68 in 10.0 mi WSW 3.5 mph - N/A   Clear
1:56 PM 55.4 °F - 48.2 °F 77% 29.68 in 10.0 mi West 6.9 mph - N/A   Partly Cloudy
2:16 PM 57.2 °F - 50.0 °F 77% 29.68 in 10.0 mi West 13.8 mph - N/A   Scattered Clouds
2:36 PM 57.2 °F - 50.0 °F 77% 29.67 in 10.0 mi WSW 15.0 mph - N/A   Scattered Clouds
2:56 PM 57.2 °F - 48.2 °F 72% 29.67 in 10.0 mi WSW 16.1 mph - N/A   Partly Cloudy
3:16 PM 57.2 °F - 48.2 °F 72% 29.67 in 10.0 mi WSW 13.8 mph - N/A   Partly Cloudy
3:36 PM 57.2 °F - 50.0 °F 77% 29.66 in 10.0 mi WSW 11.5 mph - N/A   Clear
3:56 PM 57.2 °F - 48.2 °F 72% 29.66 in 10.0 mi West 8.1 mph - N/A   Clear
4:16 PM 57.2 °F - 48.2 °F 72% 29.65 in 10.0 mi West 8.1 mph - N/A   Partly Cloudy
4:36 PM 57.2 °F - 48.2 °F 72% 29.65 in 10.0 mi West 6.9 mph - N/A   Mostly Cloudy
4:56 PM 57.2 °F - 50.0 °F 77% 29.65 in 10.0 mi West 6.9 mph - N/A   Overcast
5:16 PM 57.2 °F - 50.0 °F 77% 29.64 in 10.0 mi West 9.2 mph - N/A   Overcast
5:36 PM 55.4 °F - 48.2 °F 77% 29.64 in 10.0 mi West 10.4 mph - N/A   Mostly Cloudy
5:56 PM 55.4 °F - 48.2 °F 77% 29.64 in 10.0 mi West 8.1 mph - N/A   Mostly Cloudy
6:16 PM 55.4 °F - 48.2 °F 77% 29.63 in 10.0 mi West 8.1 mph - N/A   Mostly Cloudy
6:36 PM 55.4 °F - 46.4 °F 72% 29.63 in 10.0 mi West 5.8 mph - N/A   Partly Cloudy
6:56 PM 55.4 °F - 46.4 °F 72% 29.63 in 10.0 mi WNW 5.8 mph - N/A   Clear
7:16 PM 55.4 °F - 46.4 °F 72% 29.62 in 10.0 mi WNW 3.5 mph - N/A   Clear
7:36 PM 55.4 °F - 46.4 °F 72% 29.62 in 10.0 mi WSW 3.5 mph - N/A   Clear
7:56 PM 55.4 °F - 46.4 °F 72% 29.62 in 10.0 mi WSW 5.8 mph - N/A   Partly Cloudy
8:16 PM 55.4 °F - 48.2 °F 77% 29.61 in 10.0 mi West 3.5 mph - N/A   Mostly Cloudy
8:36 PM 55.4 °F - 48.2 °F 77% 29.61 in 10.0 mi West 3.5 mph - N/A   Overcast
8:56 PM 55.4 °F - 48.2 °F 77% 29.61 in 10.0 mi Calm Calm - N/A   Overcast
9:16 PM 55.4 °F - 48.2 °F 77% 29.61 in 10.0 mi Calm Calm - N/A   Overcast
9:36 PM 55.4 °F - 48.2 °F 77% 29.60 in 10.0 mi Calm Calm - N/A   Overcast
9:56 PM 55.4 °F - 48.2 °F 77% 29.60 in 10.0 mi Calm Calm - N/A   Overcast
10:16 PM 55.4 °F - 48.2 °F 77% 29.59 in 10.0 mi WSW 3.5 mph - N/A   Overcast
10:36 PM 55.4 °F - 48.2 °F 77% 29.59 in 10.0 mi SW 3.5 mph - N/A   Overcast
10:56 PM 55.4 °F - 48.2 °F 77% 29.58 in 10.0 mi Calm Calm - N/A   Overcast
11:16 PM 53.6 °F - 48.2 °F 82% 29.58 in 10.0 mi East 4.6 mph - N/A   Overcast
11:36 PM 53.6 °F - 48.2 °F 82% 29.58 in 10.0 mi East 3.5 mph - N/A   Overcast
11:56 PM 53.6 °F - 48.2 °F 82% 29.57 in 10.0 mi ESE 4.6 mph - N/A   Overcast